Year,Month,Day,Hour,Minute,Value (Times are PST for temperature in C)
2011,04,28,00,00,1.50
2011,04,28,00,01,1.40
2011,04,28,00,02,1.40
2011,04,28,00,03,1.40
2011,04,28,00,04,1.40
2011,04,28,00,05,1.40
2011,04,28,00,06,1.40
2011,04,28,00,07,1.40
2011,04,28,00,08,1.40
2011,04,28,00,09,1.40
2011,04,28,00,10,1.40
2011,04,28,00,11,1.40
2011,04,28,00,12,1.40
2011,04,28,00,13,1.30
2011,04,28,00,14,1.30
2011,04,28,00,15,1.30
2011,04,28,00,16,1.30
2011,04,28,00,17,1.30
2011,04,28,00,18,1.40
2011,04,28,00,19,1.40
2011,04,28,00,20,1.40
2011,04,28,00,21,1.50
2011,04,28,00,22,1.50
2011,04,28,00,23,1.50
2011,04,28,00,24,1.50
2011,04,28,00,25,1.50
2011,04,28,00,26,1.60
2011,04,28,00,27,1.60
2011,04,28,00,28,1.60
2011,04,28,00,29,1.70
2011,04,28,00,30,1.60
2011,04,28,00,31,1.60
2011,04,28,00,32,1.60
2011,04,28,00,33,1.50
2011,04,28,00,34,1.50
2011,04,28,00,35,1.50
2011,04,28,00,36,1.50
2011,04,28,00,37,1.50
2011,04,28,00,38,1.50
2011,04,28,00,39,1.50
2011,04,28,00,40,1.50
2011,04,28,00,41,1.50
2011,04,28,00,42,1.60
2011,04,28,00,43,1.60
2011,04,28,00,44,1.60
2011,04,28,00,45,1.60
2011,04,28,00,46,1.60
2011,04,28,00,47,1.60
2011,04,28,00,48,1.60
2011,04,28,00,49,1.60
2011,04,28,00,50,1.60
2011,04,28,00,51,1.60
2011,04,28,00,52,1.70
2011,04,28,00,53,1.70
2011,04,28,00,54,1.70
2011,04,28,00,55,1.70
2011,04,28,00,56,1.80
2011,04,28,00,57,1.80
2011,04,28,00,58,1.80
2011,04,28,00,59,1.80
2011,04,28,01,00,1.90
2011,04,28,01,01,1.90
2011,04,28,01,02,2.00
2011,04,28,01,03,2.10
2011,04,28,01,04,2.10
2011,04,28,01,05,2.20
2011,04,28,01,06,2.20
2011,04,28,01,07,2.30
2011,04,28,01,08,2.30
2011,04,28,01,09,2.30
2011,04,28,01,10,2.30
2011,04,28,01,11,2.30
2011,04,28,01,12,2.30
2011,04,28,01,13,2.30
2011,04,28,01,14,2.30
2011,04,28,01,15,2.30
2011,04,28,01,16,2.20
2011,04,28,01,17,2.20
2011,04,28,01,18,2.20
2011,04,28,01,19,2.20
2011,04,28,01,20,2.20
2011,04,28,01,21,2.20
2011,04,28,01,22,2.20
2011,04,28,01,23,2.20
2011,04,28,01,24,2.20
2011,04,28,01,25,2.30
2011,04,28,01,26,2.30
2011,04,28,01,27,2.30
2011,04,28,01,28,2.30
2011,04,28,01,29,2.30
2011,04,28,01,30,2.30
2011,04,28,01,31,2.30
2011,04,28,01,32,2.30
2011,04,28,01,33,2.40
2011,04,28,01,34,2.40
2011,04,28,01,35,2.40
2011,04,28,01,36,2.40
2011,04,28,01,37,2.40
2011,04,28,01,38,2.40
2011,04,28,01,39,2.40
2011,04,28,01,40,2.40
2011,04,28,01,41,2.50
2011,04,28,01,42,2.50
2011,04,28,01,43,2.50
2011,04,28,01,44,2.60
2011,04,28,01,45,2.60
2011,04,28,01,46,2.60
2011,04,28,01,47,2.60
2011,04,28,01,48,2.70
2011,04,28,01,49,2.70
2011,04,28,01,50,2.70
2011,04,28,01,51,2.70
2011,04,28,01,52,2.70
2011,04,28,01,53,2.70
2011,04,28,01,54,2.70
2011,04,28,01,55,2.70
2011,04,28,01,56,2.70
2011,04,28,01,57,2.80
2011,04,28,01,58,2.80
2011,04,28,01,59,2.80
2011,04,28,02,00,2.80
2011,04,28,02,01,2.80
2011,04,28,02,02,2.80
2011,04,28,02,03,2.80
2011,04,28,02,04,2.80
2011,04,28,02,05,2.80
2011,04,28,02,06,2.80
2011,04,28,02,07,2.80
2011,04,28,02,08,2.80
2011,04,28,02,09,2.80
2011,04,28,02,10,2.80
2011,04,28,02,11,2.80
2011,04,28,02,12,2.80
2011,04,28,02,13,2.80
2011,04,28,02,14,2.80
2011,04,28,02,15,2.80
2011,04,28,02,16,2.80
2011,04,28,02,17,2.80
2011,04,28,02,18,2.80
2011,04,28,02,19,2.90
2011,04,28,02,20,2.90
2011,04,28,02,21,2.90
2011,04,28,02,22,2.90
2011,04,28,02,23,2.90
2011,04,28,02,24,2.90
2011,04,28,02,25,2.90
2011,04,28,02,26,2.90
2011,04,28,02,27,2.90
2011,04,28,02,28,3.00
2011,04,28,02,29,3.00
2011,04,28,02,30,3.00
2011,04,28,02,31,3.00
2011,04,28,02,32,3.10
2011,04,28,02,33,3.10
2011,04,28,02,34,3.10
2011,04,28,02,35,3.10
2011,04,28,02,36,3.10
2011,04,28,02,37,3.10
2011,04,28,02,38,3.10
2011,04,28,02,39,3.10
2011,04,28,02,40,3.20
2011,04,28,02,41,3.20
2011,04,28,02,42,3.20
2011,04,28,02,43,3.20
2011,04,28,02,44,3.20
2011,04,28,02,45,3.20
2011,04,28,02,46,3.20
2011,04,28,02,47,3.20
2011,04,28,02,48,3.20
2011,04,28,02,49,3.20
2011,04,28,02,50,3.20
2011,04,28,02,51,3.20
2011,04,28,02,52,3.20
2011,04,28,02,53,3.20
2011,04,28,02,54,3.20
2011,04,28,02,55,3.20
2011,04,28,02,56,3.20
2011,04,28,02,57,3.20
2011,04,28,02,58,3.20
2011,04,28,02,59,3.20
2011,04,28,03,00,3.20
2011,04,28,03,01,3.20
2011,04,28,03,02,3.20
2011,04,28,03,03,3.20
2011,04,28,03,04,3.10
2011,04,28,03,05,3.10
2011,04,28,03,06,3.10
2011,04,28,03,07,3.10
2011,04,28,03,08,3.10
2011,04,28,03,09,3.10
2011,04,28,03,10,3.10
2011,04,28,03,11,3.10
2011,04,28,03,12,3.10
2011,04,28,03,13,3.10
2011,04,28,03,14,3.10
2011,04,28,03,15,3.10
2011,04,28,03,16,3.10
2011,04,28,03,17,3.10
2011,04,28,03,18,3.10
2011,04,28,03,19,3.10
2011,04,28,03,20,3.10
2011,04,28,03,21,3.10
2011,04,28,03,22,3.10
2011,04,28,03,23,3.10
2011,04,28,03,24,3.10
2011,04,28,03,25,3.10
2011,04,28,03,26,3.10
2011,04,28,03,27,3.10
2011,04,28,03,28,3.10
2011,04,28,03,29,3.10
2011,04,28,03,30,3.10
2011,04,28,03,31,3.10
2011,04,28,03,32,3.10
2011,04,28,03,33,3.10
2011,04,28,03,34,3.10
2011,04,28,03,35,3.10
2011,04,28,03,36,3.10
2011,04,28,03,37,3.10
2011,04,28,03,38,3.10
2011,04,28,03,39,3.20
2011,04,28,03,40,3.20
2011,04,28,03,41,3.20
2011,04,28,03,42,3.20
2011,04,28,03,43,3.20
2011,04,28,03,44,3.20
2011,04,28,03,45,3.20
2011,04,28,03,46,3.20
2011,04,28,03,47,3.20
2011,04,28,03,48,3.20
2011,04,28,03,49,3.20
2011,04,28,03,50,3.20
2011,04,28,03,51,3.20
2011,04,28,03,52,3.20
2011,04,28,03,53,3.20
2011,04,28,03,54,3.20
2011,04,28,03,55,3.20
2011,04,28,03,56,3.20
2011,04,28,03,57,3.20
2011,04,28,03,58,3.20
2011,04,28,03,59,3.20
2011,04,28,04,00,3.20
2011,04,28,04,01,3.20
2011,04,28,04,02,3.20
2011,04,28,04,03,3.20
2011,04,28,04,04,3.20
2011,04,28,04,05,3.20
2011,04,28,04,06,3.20
2011,04,28,04,07,3.20
2011,04,28,04,08,3.20
2011,04,28,04,09,3.20
2011,04,28,04,10,3.20
2011,04,28,04,11,3.20
2011,04,28,04,12,3.30
2011,04,28,04,13,3.30
2011,04,28,04,14,3.30
2011,04,28,04,15,3.30
2011,04,28,04,16,3.30
2011,04,28,04,17,3.30
2011,04,28,04,18,3.30
2011,04,28,04,19,3.30
2011,04,28,04,20,3.30
2011,04,28,04,21,3.30
2011,04,28,04,22,3.30
2011,04,28,04,23,3.30
2011,04,28,04,24,3.30
2011,04,28,04,25,3.30
2011,04,28,04,26,3.30
2011,04,28,04,27,3.30
2011,04,28,04,28,3.30
2011,04,28,04,29,3.30
2011,04,28,04,30,3.30
2011,04,28,04,31,3.20
2011,04,28,04,32,3.20
2011,04,28,04,33,3.10
2011,04,28,04,34,3.10
2011,04,28,04,35,3.10
2011,04,28,04,36,3.10
2011,04,28,04,37,3.10
2011,04,28,04,38,3.00
2011,04,28,04,39,3.00
2011,04,28,04,40,2.90
2011,04,28,04,41,2.90
2011,04,28,04,42,2.90
2011,04,28,04,43,2.90
2011,04,28,04,44,2.90
2011,04,28,04,45,2.90
2011,04,28,04,46,2.80
2011,04,28,04,47,2.80
2011,04,28,04,48,2.80
2011,04,28,04,49,2.80
2011,04,28,04,50,2.80
2011,04,28,04,51,2.80
2011,04,28,04,52,2.80
2011,04,28,04,53,2.80
2011,04,28,04,54,2.80
2011,04,28,04,55,2.80
2011,04,28,04,56,2.80
2011,04,28,04,57,2.80
2011,04,28,04,58,2.80
2011,04,28,04,59,2.80
2011,04,28,05,00,2.80
2011,04,28,05,01,2.80
2011,04,28,05,02,2.80
2011,04,28,05,03,2.80
2011,04,28,05,04,2.80
2011,04,28,05,05,2.80
2011,04,28,05,06,2.90
2011,04,28,05,07,2.90
2011,04,28,05,08,2.90
2011,04,28,05,09,2.90
2011,04,28,05,10,2.90
2011,04,28,05,11,2.90
2011,04,28,05,12,2.90
2011,04,28,05,13,2.90
2011,04,28,05,14,2.90
2011,04,28,05,15,2.90
2011,04,28,05,16,2.90
2011,04,28,05,17,2.90
2011,04,28,05,18,2.90
2011,04,28,05,19,2.90
2011,04,28,05,20,2.90
2011,04,28,05,21,2.90
2011,04,28,05,22,2.90
2011,04,28,05,23,2.90
2011,04,28,05,24,2.90
2011,04,28,05,25,2.90
2011,04,28,05,26,2.90
2011,04,28,05,27,2.90
2011,04,28,05,28,2.90
2011,04,28,05,29,2.90
2011,04,28,05,30,3.00
2011,04,28,05,31,3.00
2011,04,28,05,32,3.00
2011,04,28,05,33,3.00
2011,04,28,05,34,3.00
2011,04,28,05,35,3.00
2011,04,28,05,36,3.00
2011,04,28,05,37,3.00
2011,04,28,05,38,3.00
2011,04,28,05,39,3.00
2011,04,28,05,40,3.00
2011,04,28,05,41,3.00
2011,04,28,05,42,3.00
2011,04,28,05,43,3.00
2011,04,28,05,44,3.00
2011,04,28,05,45,3.00
2011,04,28,05,46,3.00
2011,04,28,05,47,3.00
2011,04,28,05,48,3.00
2011,04,28,05,49,3.00
2011,04,28,05,50,3.00
2011,04,28,05,51,3.00
2011,04,28,05,52,3.00
2011,04,28,05,53,3.00
2011,04,28,05,54,3.10
2011,04,28,05,55,3.10
2011,04,28,05,56,3.10
2011,04,28,05,57,3.10
2011,04,28,05,58,3.10
2011,04,28,05,59,3.10
2011,04,28,06,00,3.10
2011,04,28,06,01,3.10
2011,04,28,06,02,3.10
2011,04,28,06,03,3.10
2011,04,28,06,04,3.10
2011,04,28,06,05,3.10
2011,04,28,06,06,3.10
2011,04,28,06,07,3.10
2011,04,28,06,08,3.10
2011,04,28,06,09,3.10
2011,04,28,06,10,3.10
2011,04,28,06,11,3.10
2011,04,28,06,12,3.10
2011,04,28,06,13,3.10
2011,04,28,06,14,3.10
2011,04,28,06,15,3.20
2011,04,28,06,16,3.20
2011,04,28,06,17,3.20
2011,04,28,06,18,3.20
2011,04,28,06,19,3.20
2011,04,28,06,20,3.20
2011,04,28,06,21,3.20
2011,04,28,06,22,3.20
2011,04,28,06,23,3.20
2011,04,28,06,24,3.20
2011,04,28,06,25,3.20
2011,04,28,06,26,3.20
2011,04,28,06,27,3.20
2011,04,28,06,28,3.20
2011,04,28,06,29,3.20
2011,04,28,06,30,3.20
2011,04,28,06,31,3.20
2011,04,28,06,32,3.20
2011,04,28,06,33,3.20
2011,04,28,06,34,3.20
2011,04,28,06,35,3.20
2011,04,28,06,36,3.20
2011,04,28,06,37,3.20
2011,04,28,06,38,3.20
2011,04,28,06,39,3.30
2011,04,28,06,40,3.30
2011,04,28,06,41,3.30
2011,04,28,06,42,3.30
2011,04,28,06,43,3.30
2011,04,28,06,44,3.30
2011,04,28,06,45,3.30
2011,04,28,06,46,3.30
2011,04,28,06,47,3.30
2011,04,28,06,48,3.30
2011,04,28,06,49,3.40
2011,04,28,06,50,3.40
2011,04,28,06,51,3.40
2011,04,28,06,52,3.40
2011,04,28,06,53,3.40
2011,04,28,06,54,3.40
2011,04,28,06,55,3.50
2011,04,28,06,56,3.50
2011,04,28,06,57,3.50
2011,04,28,06,58,3.50
2011,04,28,06,59,3.60
2011,04,28,07,00,3.60
2011,04,28,07,01,3.60
2011,04,28,07,02,3.60
2011,04,28,07,03,3.60
2011,04,28,07,04,3.60
2011,04,28,07,05,3.60
2011,04,28,07,06,3.70
2011,04,28,07,07,3.70
2011,04,28,07,08,3.70
2011,04,28,07,09,3.70
2011,04,28,07,10,3.70
2011,04,28,07,11,3.80
2011,04,28,07,12,3.80
2011,04,28,07,13,3.80
2011,04,28,07,14,3.80
2011,04,28,07,15,3.80
2011,04,28,07,16,3.80
2011,04,28,07,17,3.80
2011,04,28,07,18,3.80
2011,04,28,07,19,3.90
2011,04,28,07,20,3.90
2011,04,28,07,21,3.90
2011,04,28,07,22,3.90
2011,04,28,07,23,3.90
2011,04,28,07,24,3.90
2011,04,28,07,25,3.90
2011,04,28,07,26,3.90
2011,04,28,07,27,3.90
2011,04,28,07,28,4.00
2011,04,28,07,29,4.00
2011,04,28,07,30,4.00
2011,04,28,07,31,4.10
2011,04,28,07,32,4.10
2011,04,28,07,33,4.10
2011,04,28,07,34,4.10
2011,04,28,07,35,4.10
2011,04,28,07,36,4.10
2011,04,28,07,37,4.10
2011,04,28,07,38,4.10
2011,04,28,07,39,4.10
2011,04,28,07,40,4.20
2011,04,28,07,41,4.20
2011,04,28,07,42,4.20
2011,04,28,07,43,4.20
2011,04,28,07,44,4.20
2011,04,28,07,45,4.20
2011,04,28,07,46,4.20
2011,04,28,07,47,4.30
2011,04,28,07,48,4.30
2011,04,28,07,49,4.30
2011,04,28,07,50,4.30
2011,04,28,07,51,4.30
2011,04,28,07,52,4.30
2011,04,28,07,53,4.30
2011,04,28,07,54,4.30
2011,04,28,07,55,4.30
2011,04,28,07,56,4.30
2011,04,28,07,57,4.30
2011,04,28,07,58,4.30
2011,04,28,07,59,4.30
2011,04,28,08,00,4.40
2011,04,28,08,01,4.40
2011,04,28,08,02,4.40
2011,04,28,08,03,4.40
2011,04,28,08,04,4.40
2011,04,28,08,05,4.40
2011,04,28,08,06,4.40
2011,04,28,08,07,4.40
2011,04,28,08,08,4.50
2011,04,28,08,09,4.50
2011,04,28,08,10,4.50
2011,04,28,08,11,4.60
2011,04,28,08,12,4.60
2011,04,28,08,13,4.60
2011,04,28,08,14,4.70
2011,04,28,08,15,4.70
2011,04,28,08,16,4.70
2011,04,28,08,17,4.80
2011,04,28,08,18,4.80
2011,04,28,08,19,4.80
2011,04,28,08,20,4.80
2011,04,28,08,21,4.80
2011,04,28,08,22,4.90
2011,04,28,08,23,4.90
2011,04,28,08,24,4.80
2011,04,28,08,25,4.80
2011,04,28,08,26,4.80
2011,04,28,08,27,4.80
2011,04,28,08,28,4.80
2011,04,28,08,29,4.80
2011,04,28,08,30,4.80
2011,04,28,08,31,4.80
2011,04,28,08,32,4.80
2011,04,28,08,33,4.80
2011,04,28,08,34,4.90
2011,04,28,08,35,4.90
2011,04,28,08,36,4.90
2011,04,28,08,37,4.90
2011,04,28,08,38,5.00
2011,04,28,08,39,5.00
2011,04,28,08,40,5.00
2011,04,28,08,41,5.10
2011,04,28,08,42,5.10
2011,04,28,08,43,5.10
2011,04,28,08,44,5.10
2011,04,28,08,45,5.10
2011,04,28,08,46,5.20
2011,04,28,08,47,5.20
2011,04,28,08,48,5.20
2011,04,28,08,49,5.30
2011,04,28,08,50,5.30
2011,04,28,08,51,5.30
2011,04,28,08,52,5.30
2011,04,28,08,53,5.40
2011,04,28,08,54,5.40
2011,04,28,08,55,5.40
2011,04,28,08,56,5.50
2011,04,28,08,57,5.50
2011,04,28,08,58,5.60
2011,04,28,08,59,5.60
2011,04,28,09,00,5.70
2011,04,28,09,01,5.70
2011,04,28,09,02,5.70
2011,04,28,09,03,5.80
2011,04,28,09,04,5.80
2011,04,28,09,05,5.80
2011,04,28,09,06,5.80
2011,04,28,09,07,5.80
2011,04,28,09,08,5.80
2011,04,28,09,09,5.80
2011,04,28,09,10,5.80
2011,04,28,09,11,5.90
2011,04,28,09,12,5.90
2011,04,28,09,13,5.90
2011,04,28,09,14,6.00
2011,04,28,09,15,6.00
2011,04,28,09,16,6.00
2011,04,28,09,17,6.00
2011,04,28,09,18,6.00
2011,04,28,09,19,6.10
2011,04,28,09,20,6.10
2011,04,28,09,21,6.20
2011,04,28,09,22,6.30
2011,04,28,09,23,6.30
2011,04,28,09,24,6.30
2011,04,28,09,25,6.40
2011,04,28,09,26,6.40
2011,04,28,09,27,6.50
2011,04,28,09,28,6.50
2011,04,28,09,29,6.60
2011,04,28,09,30,6.70
2011,04,28,09,31,6.80
2011,04,28,09,32,6.90
2011,04,28,09,33,7.00
2011,04,28,09,34,7.10
2011,04,28,09,35,7.20
2011,04,28,09,36,7.30
2011,04,28,09,37,7.30
2011,04,28,09,38,7.40
2011,04,28,09,39,7.50
2011,04,28,09,40,7.50
2011,04,28,09,41,7.60
2011,04,28,09,42,7.60
2011,04,28,09,43,7.50
2011,04,28,09,44,7.40
2011,04,28,09,45,7.40
2011,04,28,09,46,7.40
2011,04,28,09,47,7.40
2011,04,28,09,48,7.50
2011,04,28,09,49,7.50
2011,04,28,09,50,7.60
2011,04,28,09,51,7.60
2011,04,28,09,52,7.60
2011,04,28,09,53,7.60
2011,04,28,09,54,7.70
2011,04,28,09,55,7.70
2011,04,28,09,56,7.70
2011,04,28,09,57,7.80
2011,04,28,09,58,7.80
2011,04,28,09,59,7.90
2011,04,28,10,00,7.90
2011,04,28,10,01,8.00
2011,04,28,10,02,8.00
2011,04,28,10,03,8.10
2011,04,28,10,04,8.10
2011,04,28,10,05,8.00
2011,04,28,10,06,7.90
2011,04,28,10,07,7.80
2011,04,28,10,08,7.80
2011,04,28,10,09,7.70
2011,04,28,10,10,7.80
2011,04,28,10,11,7.80
2011,04,28,10,12,7.80
2011,04,28,10,13,7.80
2011,04,28,10,14,7.80
2011,04,28,10,15,7.90
2011,04,28,10,16,7.90
2011,04,28,10,17,7.90
2011,04,28,10,18,7.90
2011,04,28,10,19,8.00
2011,04,28,10,20,8.00
2011,04,28,10,21,7.90
2011,04,28,10,22,7.90
2011,04,28,10,23,7.90
2011,04,28,10,24,7.90
2011,04,28,10,25,7.90
2011,04,28,10,26,7.90
2011,04,28,10,27,7.90
2011,04,28,10,28,7.90
2011,04,28,10,29,7.90
2011,04,28,10,30,7.80
2011,04,28,10,31,7.80
2011,04,28,10,32,7.80
2011,04,28,10,33,7.80
2011,04,28,10,34,7.80
2011,04,28,10,35,7.90
2011,04,28,10,36,7.90
2011,04,28,10,37,7.90
2011,04,28,10,38,7.90
2011,04,28,10,39,7.90
2011,04,28,10,40,7.90
2011,04,28,10,41,7.90
2011,04,28,10,42,7.90
2011,04,28,10,43,8.00
2011,04,28,10,44,8.10
2011,04,28,10,45,8.10
2011,04,28,10,46,8.20
2011,04,28,10,47,8.20
2011,04,28,10,48,8.30
2011,04,28,10,49,8.30
2011,04,28,10,50,8.30
2011,04,28,10,51,8.30
2011,04,28,10,52,8.30
2011,04,28,10,53,8.40
2011,04,28,10,54,8.40
2011,04,28,10,55,8.50
2011,04,28,10,56,8.60
2011,04,28,10,57,8.60
2011,04,28,10,58,8.70
2011,04,28,10,59,8.60
2011,04,28,11,00,8.60
2011,04,28,11,01,8.50
2011,04,28,11,02,8.50
2011,04,28,11,03,8.50
2011,04,28,11,04,8.50
2011,04,28,11,05,8.50
2011,04,28,11,06,8.50
2011,04,28,11,07,8.50
2011,04,28,11,08,8.60
2011,04,28,11,09,8.70
2011,04,28,11,10,8.70
2011,04,28,11,11,8.80
2011,04,28,11,12,8.80
2011,04,28,11,13,8.70
2011,04,28,11,14,8.70
2011,04,28,11,15,8.60
2011,04,28,11,16,8.60
2011,04,28,11,17,8.50
2011,04,28,11,18,8.50
2011,04,28,11,19,8.50
2011,04,28,11,20,8.50
2011,04,28,11,21,8.50
2011,04,28,11,22,8.50
2011,04,28,11,23,8.60
2011,04,28,11,24,8.60
2011,04,28,11,25,8.60
2011,04,28,11,26,8.60
2011,04,28,11,27,8.70
2011,04,28,11,28,8.70
2011,04,28,11,29,8.80
2011,04,28,11,30,8.90
2011,04,28,11,31,9.00
2011,04,28,11,32,9.10
2011,04,28,11,33,9.20
2011,04,28,11,34,9.30
2011,04,28,11,35,9.30
2011,04,28,11,36,9.30
2011,04,28,11,37,9.30
2011,04,28,11,38,9.40
2011,04,28,11,39,9.40
2011,04,28,11,40,9.40
2011,04,28,11,41,9.30
2011,04,28,11,42,9.30
2011,04,28,11,43,9.40
2011,04,28,11,44,9.50
2011,04,28,11,45,9.50
2011,04,28,11,46,9.60
2011,04,28,11,47,9.70
2011,04,28,11,48,9.70
2011,04,28,11,49,9.80
2011,04,28,11,50,9.80
2011,04,28,11,51,9.90
2011,04,28,11,52,9.90
2011,04,28,11,53,9.90
2011,04,28,11,54,10.00
2011,04,28,11,55,10.00
2011,04,28,11,56,10.10
2011,04,28,11,57,10.20
2011,04,28,11,58,10.20
2011,04,28,11,59,10.20
2011,04,28,12,00,10.30
2011,04,28,12,01,10.40
2011,04,28,12,02,10.60
2011,04,28,12,03,10.70
2011,04,28,12,04,10.70
2011,04,28,12,05,10.70
2011,04,28,12,06,10.50
2011,04,28,12,07,10.40
2011,04,28,12,08,10.40
2011,04,28,12,09,10.30
2011,04,28,12,10,10.20
2011,04,28,12,11,10.10
2011,04,28,12,12,9.90
2011,04,28,12,13,9.80
2011,04,28,12,14,9.80
2011,04,28,12,15,9.90
2011,04,28,12,16,9.90
2011,04,28,12,17,10.00
2011,04,28,12,18,10.00
2011,04,28,12,19,10.00
2011,04,28,12,20,9.90
2011,04,28,12,21,9.90
2011,04,28,12,22,9.90
2011,04,28,12,23,9.90
2011,04,28,12,24,10.00
2011,04,28,12,25,10.00
2011,04,28,12,26,10.00
2011,04,28,12,27,10.00
2011,04,28,12,28,10.00
2011,04,28,12,29,10.00
2011,04,28,12,30,10.00
2011,04,28,12,31,10.10
2011,04,28,12,32,10.10
2011,04,28,12,33,10.20
2011,04,28,12,34,10.10
2011,04,28,12,35,9.90
2011,04,28,12,36,9.90
2011,04,28,12,37,9.80
2011,04,28,12,38,9.80
2011,04,28,12,39,9.90
2011,04,28,12,40,10.00
2011,04,28,12,41,10.00
2011,04,28,12,42,10.10
2011,04,28,12,43,10.10
2011,04,28,12,44,10.00
2011,04,28,12,45,10.00
2011,04,28,12,46,10.00
2011,04,28,12,47,10.00
2011,04,28,12,48,10.10
2011,04,28,12,49,10.10
2011,04,28,12,50,10.20
2011,04,28,12,51,10.10
2011,04,28,12,52,10.20
2011,04,28,12,53,10.20
2011,04,28,12,54,10.10
2011,04,28,12,55,10.10
2011,04,28,12,56,10.00
2011,04,28,12,57,9.90
2011,04,28,12,58,9.80
2011,04,28,12,59,9.80
2011,04,28,13,00,9.70
2011,04,28,13,01,9.70
2011,04,28,13,02,9.70
2011,04,28,13,03,9.70
2011,04,28,13,04,9.70
2011,04,28,13,05,9.80
2011,04,28,13,06,9.80
2011,04,28,13,07,9.90
2011,04,28,13,08,9.90
2011,04,28,13,09,10.00
2011,04,28,13,10,10.10
2011,04,28,13,11,10.20
2011,04,28,13,12,10.30
2011,04,28,13,13,10.30
2011,04,28,13,14,10.40
2011,04,28,13,15,10.50
2011,04,28,13,16,10.60
2011,04,28,13,17,10.60
2011,04,28,13,18,10.60
2011,04,28,13,19,10.60
2011,04,28,13,20,10.60
2011,04,28,13,21,10.60
2011,04,28,13,22,10.60
2011,04,28,13,23,10.60
2011,04,28,13,24,10.60
2011,04,28,13,25,10.60
2011,04,28,13,26,10.60
2011,04,28,13,27,10.60
2011,04,28,13,28,10.70
2011,04,28,13,29,10.80
2011,04,28,13,30,10.80
2011,04,28,13,31,10.90
2011,04,28,13,32,11.00
2011,04,28,13,33,11.00
2011,04,28,13,34,11.10
2011,04,28,13,35,11.10
2011,04,28,13,36,11.00
2011,04,28,13,37,10.90
2011,04,28,13,38,10.80
2011,04,28,13,39,10.70
2011,04,28,13,40,10.60
2011,04,28,13,41,10.60
2011,04,28,13,42,10.50
2011,04,28,13,43,10.40
2011,04,28,13,44,10.40
2011,04,28,13,45,10.30
2011,04,28,13,46,10.30
2011,04,28,13,47,10.30
2011,04,28,13,48,10.30
2011,04,28,13,49,10.40
2011,04,28,13,50,10.40
2011,04,28,13,51,10.50
2011,04,28,13,52,10.50
2011,04,28,13,53,10.60
2011,04,28,13,54,10.60
2011,04,28,13,55,10.60
2011,04,28,13,56,10.50
2011,04,28,13,57,10.50
2011,04,28,13,58,10.50
2011,04,28,13,59,10.50
2011,04,28,14,00,10.70
2011,04,28,14,01,10.70
2011,04,28,14,02,10.50
2011,04,28,14,03,10.50
2011,04,28,14,04,10.40
2011,04,28,14,05,10.30
2011,04,28,14,06,10.30
2011,04,28,14,07,10.40
2011,04,28,14,08,10.40
2011,04,28,14,09,10.40
2011,04,28,14,10,10.40
2011,04,28,14,11,10.40
2011,04,28,14,12,10.30
2011,04,28,14,13,10.20
2011,04,28,14,14,10.10
2011,04,28,14,15,10.00
2011,04,28,14,16,10.00
2011,04,28,14,17,10.00
2011,04,28,14,18,10.00
2011,04,28,14,19,10.10
2011,04,28,14,20,10.10
2011,04,28,14,21,10.10
2011,04,28,14,22,10.10
2011,04,28,14,23,10.20
2011,04,28,14,24,10.20
2011,04,28,14,25,10.30
2011,04,28,14,26,10.20
2011,04,28,14,27,10.00
2011,04,28,14,28,10.00
2011,04,28,14,29,10.00
2011,04,28,14,30,9.90
2011,04,28,14,31,10.00
2011,04,28,14,32,10.10
2011,04,28,14,33,10.20
2011,04,28,14,34,10.20
2011,04,28,14,35,10.30
2011,04,28,14,36,10.40
2011,04,28,14,37,10.40
2011,04,28,14,38,10.40
2011,04,28,14,39,10.30
2011,04,28,14,40,10.20
2011,04,28,14,41,10.10
2011,04,28,14,42,10.00
2011,04,28,14,43,9.90
2011,04,28,14,44,9.90
2011,04,28,14,45,10.00
2011,04,28,14,46,10.00
2011,04,28,14,47,10.10
2011,04,28,14,48,10.00
2011,04,28,14,49,9.90
2011,04,28,14,50,9.90
2011,04,28,14,51,9.80
2011,04,28,14,52,9.80
2011,04,28,14,53,9.80
2011,04,28,14,54,9.70
2011,04,28,14,55,9.70
2011,04,28,14,56,9.70
2011,04,28,14,57,9.70
2011,04,28,14,58,9.70
2011,04,28,14,59,9.70
2011,04,28,15,00,9.60
2011,04,28,15,01,9.60
2011,04,28,15,02,9.60
2011,04,28,15,03,9.70
2011,04,28,15,04,9.80
2011,04,28,15,05,9.90
2011,04,28,15,06,10.00
2011,04,28,15,07,10.10
2011,04,28,15,08,10.20
2011,04,28,15,09,10.30
2011,04,28,15,10,10.40
2011,04,28,15,11,10.50
2011,04,28,15,12,10.50
2011,04,28,15,13,10.40
2011,04,28,15,14,10.40
2011,04,28,15,15,10.40
2011,04,28,15,16,10.30
2011,04,28,15,17,10.20
2011,04,28,15,18,10.10
2011,04,28,15,19,10.00
2011,04,28,15,20,9.90
2011,04,28,15,21,9.90
2011,04,28,15,22,9.90
2011,04,28,15,23,9.90
2011,04,28,15,24,9.90
2011,04,28,15,25,10.00
2011,04,28,15,26,10.10
2011,04,28,15,27,10.20
2011,04,28,15,28,10.40
2011,04,28,15,29,10.50
2011,04,28,15,30,10.60
2011,04,28,15,31,10.60
2011,04,28,15,32,10.70
2011,04,28,15,33,10.80
2011,04,28,15,34,10.70
2011,04,28,15,35,10.50
2011,04,28,15,36,10.50
2011,04,28,15,37,10.40
2011,04,28,15,38,10.40
2011,04,28,15,39,10.40
2011,04,28,15,40,10.40
2011,04,28,15,41,10.50
2011,04,28,15,42,10.60
2011,04,28,15,43,10.60
2011,04,28,15,44,10.50
2011,04,28,15,45,10.40
2011,04,28,15,46,10.20
2011,04,28,15,47,10.00
2011,04,28,15,48,9.90
2011,04,28,15,49,9.90
2011,04,28,15,50,10.00
2011,04,28,15,51,10.10
2011,04,28,15,52,10.20
2011,04,28,15,53,10.40
2011,04,28,15,54,10.40
2011,04,28,15,55,10.40
2011,04,28,15,56,10.40
2011,04,28,15,57,10.40
2011,04,28,15,58,10.30
2011,04,28,15,59,10.10
2011,04,28,16,00,10.00
2011,04,28,16,01,9.90
2011,04,28,16,02,9.90
2011,04,28,16,03,9.90
2011,04,28,16,04,9.90
2011,04,28,16,05,9.90
2011,04,28,16,06,9.90
2011,04,28,16,07,9.80
2011,04,28,16,08,9.80
2011,04,28,16,09,9.80
2011,04,28,16,10,9.80
2011,04,28,16,11,9.70
2011,04,28,16,12,9.70
2011,04,28,16,13,9.70
2011,04,28,16,14,9.60
2011,04,28,16,15,9.60
2011,04,28,16,16,9.60
2011,04,28,16,17,9.60
2011,04,28,16,18,9.70
2011,04,28,16,19,9.70
2011,04,28,16,20,9.70
2011,04,28,16,21,9.70
2011,04,28,16,22,9.70
2011,04,28,16,23,9.80
2011,04,28,16,24,9.80
2011,04,28,16,25,9.80
2011,04,28,16,26,9.70
2011,04,28,16,27,9.60
2011,04,28,16,28,9.60
2011,04,28,16,29,9.60
2011,04,28,16,30,9.60
2011,04,28,16,31,9.60
2011,04,28,16,32,9.60
2011,04,28,16,33,9.50
2011,04,28,16,34,9.50
2011,04,28,16,35,9.40
2011,04,28,16,36,9.30
2011,04,28,16,37,9.30
2011,04,28,16,38,9.30
2011,04,28,16,39,9.30
2011,04,28,16,40,9.30
2011,04,28,16,41,9.20
2011,04,28,16,42,9.20
2011,04,28,16,43,9.20
2011,04,28,16,44,9.20
2011,04,28,16,45,9.20
2011,04,28,16,46,9.10
2011,04,28,16,47,9.10
2011,04,28,16,48,9.10
2011,04,28,16,49,9.10
2011,04,28,16,50,9.10
2011,04,28,16,51,9.10
2011,04,28,16,52,9.20
2011,04,28,16,53,9.20
2011,04,28,16,54,9.10
2011,04,28,16,55,9.10
2011,04,28,16,56,9.10
2011,04,28,16,57,9.10
2011,04,28,16,58,9.10
2011,04,28,16,59,9.10
2011,04,28,17,00,9.10
2011,04,28,17,01,9.10
2011,04,28,17,02,9.00
2011,04,28,17,03,9.10
2011,04,28,17,04,9.10
2011,04,28,17,05,9.10
2011,04,28,17,06,9.10
2011,04,28,17,07,9.10
2011,04,28,17,08,9.10
2011,04,28,17,09,9.10
2011,04,28,17,10,9.10
2011,04,28,17,11,9.10
2011,04,28,17,12,9.10
2011,04,28,17,13,9.10
2011,04,28,17,14,9.00
2011,04,28,17,15,9.00
2011,04,28,17,16,9.00
2011,04,28,17,17,9.00
2011,04,28,17,18,9.00
2011,04,28,17,19,9.00
2011,04,28,17,20,9.00
2011,04,28,17,21,9.00
2011,04,28,17,22,9.00
2011,04,28,17,23,9.00
2011,04,28,17,24,9.00
2011,04,28,17,25,9.00
2011,04,28,17,26,9.00
2011,04,28,17,27,9.00
2011,04,28,17,28,9.00
2011,04,28,17,29,8.90
2011,04,28,17,30,8.90
2011,04,28,17,31,8.80
2011,04,28,17,32,8.80
2011,04,28,17,33,8.70
2011,04,28,17,34,8.70
2011,04,28,17,35,8.60
2011,04,28,17,36,8.60
2011,04,28,17,37,8.60
2011,04,28,17,38,8.60
2011,04,28,17,39,8.60
2011,04,28,17,40,8.60
2011,04,28,17,41,8.60
2011,04,28,17,42,8.60
2011,04,28,17,43,8.60
2011,04,28,17,44,8.60
2011,04,28,17,45,8.60
2011,04,28,17,46,8.60
2011,04,28,17,47,8.60
2011,04,28,17,48,8.60
2011,04,28,17,49,8.60
2011,04,28,17,50,8.60
2011,04,28,17,51,8.50
2011,04,28,17,52,8.50
2011,04,28,17,53,8.50
2011,04,28,17,54,8.50
2011,04,28,17,55,8.40
2011,04,28,17,56,8.40
2011,04,28,17,57,8.40